DW7731 Weather Reports


time (UTC)temp
C
wind
direction
speed
KPH
gust
KPH
rain 1hr
cm
rain 24hr
cm
rain mn
cm
humidity
%
barometer
mb
20260507110605 7 182 0.0 0.0 0.00 1.40 0.33 99 1010.5
20260507105609 7 182 0.0 0.0 0.00 1.40 0.33 99 1010.2
20260507104604 7 182 0.0 0.0 0.00 1.40 0.33 99 1010.2
20260507104105 7 182 0.0 0.0 0.00 1.40 0.33 99 1010.2
20260507103104 7 182 0.0 0.0 0.00 1.40 0.33 99 1009.8
20260507102104 7 182 0.0 0.0 0.00 1.40 0.33 99 1009.8
20260507101604 7 182 0.0 0.0 0.00 1.40 0.33 99 1009.8
20260507100604 8 182 0.0 0.0 0.00 1.40 0.33 99 1009.8
20260507100105 8 182 0.0 0.0 0.00 1.40 0.33 99 1010.1
20260507095604 8 182 0.0 0.0 0.03 1.40 0.33 99 1010.2
20260507095105 8 182 0.0 0.0 0.05 1.40 0.33 99 1009.9
20260507094604 8 182 0.0 0.0 0.05 1.40 0.33 99 1009.8
20260507094104 8 182 0.0 0.0 0.05 1.40 0.33 99 1009.6
20260507093604 8 182 0.0 0.0 0.05 1.40 0.33 99 1009.5
20260507093104 8 182 0.0 0.0 0.08 1.40 0.33 99 1009.5
20260507092604 8 182 0.0 0.0 0.10 1.40 0.33 99 1009.6
20260507092104 8 182 0.0 0.0 0.15 1.40 0.33 99 1009.7
20260507091604 8 182 0.0 0.0 0.15 1.40 0.33 99 1009.5
20260507091104 8 182 0.0 0.0 0.20 1.40 0.33 99 1009.5
20260507090604 8 182 0.0 0.0 0.23 1.40 0.33 99 1009.5
20260507090105 8 182 0.0 0.0 0.23 1.40 0.33 99 1009.5
20260507085604 8 182 0.0 0.0 0.20 1.37 0.30 99 1009.5
20260507083104 8 182 0.0 0.0 0.18 1.32 0.25 99 1009.5
20260507082104 8 182 0.0 0.0 0.13 1.24 0.18 99 1010.2
20260507081105 8 182 0.0 0.0 0.10 1.19 0.13 99 1009.8
20260507080605 8 182 0.0 0.0 0.08 1.17 0.10 99 1010.2
20260507080104 8 182 0.0 0.0 0.08 1.17 0.10 99 1010.2
20260507074604 8 182 0.0 0.0 0.05 1.14 0.08 99 1009.8
20260507074104 8 182 0.0 0.0 0.05 1.14 0.08 99 1009.8
20260507073605 8 182 0.0 0.0 0.05 1.14 0.08 99 1009.8
20260507073105 8 182 0.0 0.0 0.05 1.14 0.08 99 1009.8
20260507072604 8 182 0.0 0.0 0.03 1.12 0.05 99 1010.2
20260507072104 8 182 0.0 0.0 0.03 1.12 0.05 99 1009.8
20260507071605 8 182 0.0 0.0 0.03 1.12 0.05 99 1009.1
20260507070605 8 182 0.0 0.0 0.00 1.09 0.03 99 1009.5
20260507070104 8 182 0.0 0.0 0.00 1.09 0.03 99 1009.5
20260507065104 8 182 0.0 0.0 0.00 1.09 0.03 99 1009.1
20260507064605 8 182 0.0 0.0 0.00 1.09 0.03 99 1009.1
20260507064104 9 182 0.0 0.0 0.00 1.09 0.03 99 1008.8
20260507063105 9 182 0.0 0.0 0.00 1.09 0.03 99 1008.8
20260507062605 9 182 0.0 0.0 0.00 1.09 0.03 99 1008.8
20260507060604 9 182 0.0 0.0 0.00 1.09 0.03 99 1008.8
20260507060105 9 182 0.0 0.0 0.00 1.09 0.03 99 1009.1
20260507055605 9 182 0.0 0.0 0.00 1.09 0.03 99 1009.1
20260507055104 9 182 0.0 0.0 0.00 1.09 0.03 99 1009.1
20260507054605 10 182 0.0 0.0 0.00 1.09 0.03 99 1009.1
20260507054104 10 182 0.0 0.0 0.00 1.09 0.03 99 1009.1
20260507053605 10 182 0.0 0.0 0.00 1.09 0.03 99 1009.1
20260507052604 10 182 0.0 0.0 0.00 1.09 0.03 99 1009.5
20260507052104 10 182 0.0 0.0 0.00 1.09 0.03 99 1009.1
20260507051605 10 182 0.0 0.0 0.00 1.09 0.03 99 1009.5
20260507051104 10 182 0.0 0.0 0.03 1.09 0.03 99 1009.5
20260507050604 10 182 0.0 0.0 0.03 1.09 0.03 99 1009.5
20260507050105 10 182 0.0 0.0 0.03 1.09 0.03 99 1009.8
20260507045604 10 182 0.0 0.0 0.03 1.09 0.03 99 1009.8
20260507045104 11 182 0.0 0.0 0.03 1.09 0.03 99 1009.5
20260507044604 11 182 0.0 0.0 0.03 1.09 0.03 99 1009.5
20260507044104 11 182 0.0 0.0 0.03 1.09 0.03 99 1009.5
20260507043604 11 182 0.0 0.0 0.03 1.09 0.03 99 1009.5
20260507042605 11 182 0.0 0.0 0.08 1.09 0.03 99 1009.5
20260507042104 11 182 0.0 0.0 0.08 1.09 0.03 99 1009.8
20260507041604 11 182 0.0 0.0 0.18 1.09 0.03 99 1009.8
20260507040604 11 182 0.0 0.0 0.18 1.07 0.00 99 1009.8
20260507040104 11 182 0.0 0.0 0.18 1.07 0.00 99 1009.5
20260507035604 11 182 0.0 0.0 0.18 1.07 1.07 99 1009.5
20260507035104 11 182 0.0 0.0 0.18 1.07 1.07 99 1009.5
20260507034604 11 182 0.0 0.0 0.18 1.07 1.07 99 1009.8
20260507034104 11 182 0.0 0.0 0.18 1.07 1.07 99 1009.5
20260507033604 11 182 0.0 0.0 0.20 1.07 1.07 99 1009.8
20260507033104 12 182 0.0 0.0 0.18 1.02 1.02 99 1009.8
20260507032604 12 182 0.0 0.0 0.20 1.02 1.02 99 1009.8
20260507032105 12 182 0.0 0.0 0.20 1.02 1.02 99 1009.8
20260507031605 12 182 0.0 0.0 0.20 1.02 1.02 99 1009.5
20260507031104 12 182 0.0 0.0 0.10 0.91 0.91 99 1009.5
20260507030603 12 182 0.0 0.0 0.10 0.91 0.91 99 1009.5
20260507025604 13 182 0.0 0.0 0.08 0.89 0.89 99 1009.5
20260507025104 13 182 0.0 0.0 0.08 0.89 0.89 99 1009.5
20260507024604 13 182 0.0 0.0 0.08 0.89 0.89 99 1009.5
20260507024104 13 182 0.0 0.0 0.08 0.89 0.89 99 1009.3
20260507023604 13 182 0.0 0.0 0.05 0.86 0.86 99 1009.1
20260507023104 13 182 0.0 0.0 0.03 0.84 0.84 99 1009.1
20260507022604 13 182 0.0 0.0 0.00 0.81 0.81 99 1009.1
20260507022104 13 182 0.0 0.0 0.00 0.81 0.81 99 1009.1
20260507021604 13 182 0.0 0.0 0.00 0.81 0.81 99 1009.1
20260507021104 13 182 0.0 0.0 0.00 0.81 0.81 99 1009.1
20260507020604 13 182 0.0 0.0 0.00 0.81 0.81 99 1009.1
20260507020104 13 182 0.0 0.0 0.00 0.81 0.81 99 1008.8
20260507015604 13 182 0.0 0.0 0.00 0.81 0.81 99 1009.1
20260507015104 13 182 0.0 0.0 0.00 0.81 0.81 99 1009.1
20260507014104 13 182 0.0 0.0 0.00 0.81 0.81 99 1009.1
20260507013605 13 182 0.0 0.0 0.00 0.81 0.81 99 1009.1
20260507012604 13 182 0.0 0.0 0.00 0.81 0.81 99 1009.1
20260507012105 13 182 0.0 0.0 0.00 0.81 0.81 99 1009.1
20260507011104 13 182 0.0 0.0 0.00 0.81 0.81 99 1009.1
20260507005604 13 182 0.0 0.0 0.00 0.81 0.81 99 1009.1
20260507005104 13 182 0.0 0.0 0.00 0.81 0.81 99 1009.1
20260507004604 13 182 0.0 0.0 0.00 0.81 0.81 99 1009.1
20260507004104 13 182 0.0 0.0 0.00 0.81 0.81 99 1009.1
20260507003604 13 182 0.0 0.0 0.00 0.81 0.81 99 1009.1
20260507003104 13 182 0.0 0.0 0.00 0.81 0.81 99 1009.1
20260507002104 13 182 0.0 0.0 0.00 0.81 0.81 98 1009.1
20260507001604 13 182 0.0 0.0 0.00 0.81 0.81 98 1009.1
20260507001104 13 182 0.0 0.0 0.00 0.81 0.81 98 1009.1
20260507000605 13 182 0.0 0.0 0.00 0.81 0.81 98 1009.1
20260506235604 13 182 0.0 0.0 0.00 0.81 0.81 98 1009.1
20260506235103 13 182 0.0 0.0 0.05 0.81 0.81 98 1008.8
20260506234604 13 182 0.0 0.0 0.08 0.81 0.81 98 1008.8
20260506234104 13 182 0.0 0.0 0.10 0.81 0.81 98 1008.8
20260506233604 13 182 0.0 0.0 0.10 0.81 0.81 98 1008.8
20260506233104 13 182 0.0 0.0 0.10 0.81 0.81 98 1008.8
20260506232604 13 182 0.0 0.0 0.13 0.81 0.81 98 1008.5
20260506232104 13 182 0.0 0.0 0.15 0.81 0.81 98 1008.5
20260506231105 13 182 0.0 0.0 0.20 0.81 0.81 98 1008.5
20260506230604 13 182 0.0 0.0 0.20 0.81 0.81 98 1008.5
20260506230104 13 182 0.0 0.0 0.20 0.81 0.81 98 1008.8
20260506225104 13 182 0.0 0.0 0.15 0.76 0.76 98 1008.8
20260506224604 13 182 0.0 0.0 0.13 0.74 0.74 98 1008.8
20260506224104 13 182 0.0 0.0 0.10 0.71 0.71 98 1008.5
20260506223604 13 182 0.0 0.0 0.10 0.71 0.71 97 1008.8
20260506222604 13 182 0.0 0.0 0.10 0.69 0.69 97 1008.5
20260506221604 13 182 0.0 0.0 0.10 0.66 0.66 97 1008.5
20260506221104 13 182 0.0 0.0 0.05 0.61 0.61 97 1008.8
20260506215604 13 182 0.0 0.0 0.15 0.61 0.61 97 1008.8
20260506215104 13 182 0.0 0.0 0.18 0.61 0.61 97 1008.5
20260506214604 13 182 0.0 0.0 0.20 0.61 0.61 97 1008.8
20260506214104 13 182 0.0 0.0 0.20 0.61 0.61 97 1008.8
20260506213604 13 182 0.0 0.0 0.20 0.61 0.61 97 1008.8
20260506213104 13 182 0.0 0.0 0.20 0.61 0.61 97 1008.8
20260506212605 13 182 0.0 0.0 0.20 0.58 0.58 97 1008.8
20260506212104 13 182 0.0 0.0 0.20 0.56 0.56 97 1008.8
20260506211604 13 182 0.0 0.0 0.20 0.56 0.56 97 1008.8
20260506211104 13 182 0.0 0.0 0.20 0.56 0.56 97 1009.1
20260506210605 13 182 0.0 0.0 0.15 0.51 0.51 96 1009.1
20260506205604 13 182 0.0 0.0 0.10 0.46 0.46 96 1009.1
20260506205104 13 182 0.0 0.0 0.10 0.43 0.43 96 1009.1
20260506204604 13 182 0.0 0.0 0.08 0.41 0.41 96 1009.1
20260506204103 13 182 0.0 0.0 0.08 0.41 0.41 96 1009.1
20260506203604 13 182 0.0 0.0 0.08 0.41 0.41 96 1009.1
20260506203104 13 182 0.0 0.0 0.08 0.41 0.41 96 1009.1
20260506202605 13 182 0.0 0.0 0.05 0.38 0.38 96 1009.4
20260506202104 13 182 0.0 0.0 0.03 0.36 0.36 96 1009.2
20260506201604 13 182 0.0 0.0 0.05 0.36 0.36 96 1009.1
20260506201104 14 182 0.0 0.0 0.05 0.36 0.36 96 1009.1
20260506200604 14 182 0.0 0.0 0.05 0.36 0.36 96 1009.1
20260506195604 14 182 0.0 0.0 0.08 0.36 0.36 95 1009.5
20260506195104 14 182 0.0 0.0 0.08 0.33 0.33 95 1009.5
20260506194104 13 182 0.0 0.0 0.10 0.33 0.33 95 1009.8
20260506193604 13 182 0.0 0.0 0.10 0.33 0.33 95 1009.8
20260506193104 14 182 0.0 0.0 0.10 0.33 0.33 95 1009.9
20260506192104 14 182 0.0 0.0 0.15 0.33 0.33 95 1009.8
20260506191604 14 182 0.0 0.0 0.15 0.30 0.30 95 1009.8
20260506191104 14 182 0.0 0.0 0.20 0.30 0.30 94 1009.8
20260506190604 14 182 0.0 0.0 0.23 0.30 0.30 94 1010.2
20260506190104 14 182 0.0 0.0 0.25 0.30 0.30 94 1010.2
20260506185604 14 182 0.0 0.0 0.23 0.28 0.28 94 1010.2
20260506185104 14 182 0.0 0.0 0.23 0.25 0.25 93 1010.2
20260506183604 15 182 0.0 0.0 0.23 0.23 0.23 93 1009.8
20260506183104 15 182 0.0 0.0 0.23 0.23 0.23 93 1010.2
20260506182604 15 182 0.0 0.0 0.20 0.20 0.20 92 1010.2
20260506182103 15 182 0.0 0.0 0.18 0.18 0.18 92 1010.2
20260506181104 15 182 0.0 0.0 0.10 0.10 0.10 91 1010.5
20260506180604 15 182 0.0 0.0 0.08 0.08 0.08 90 1010.5
20260506180104 16 182 0.0 0.0 0.05 0.05 0.05 90 1010.5
20260506175604 16 182 0.0 0.0 0.05 0.05 0.05 89 1010.8
20260506174604 16 182 0.0 0.0 0.03 0.03 0.03 87 1010.8
20260506174103 16 182 0.0 0.0 0.00 0.00 0.00 86 1010.8
20260506173104 17 182 0.0 0.0 0.00 0.00 0.00 83 1011.2
20260506172604 17 182 0.0 0.0 0.00 0.00 0.00 81 1011.2
20260506172104 18 182 0.0 0.0 0.00 0.00 0.00 80 1011.2
20260506171604 18 182 0.0 0.0 0.00 0.00 0.00 77 1011.2
20260506171104 18 182 0.0 0.0 0.00 0.00 0.00 75 1011.2
20260506170604 19 182 0.0 0.0 0.00 0.00 0.00 74 1011.2
20260506170103 20 182 0.0 0.0 0.00 0.00 0.00 71 1011.2
20260506165604 20 182 0.0 0.0 0.00 0.00 0.00 71 1010.8
20260506165104 20 182 0.0 0.0 0.00 0.00 0.00 71 1010.8
20260506164604 20 182 0.0 0.0 0.00 0.00 0.00 70 1010.8
20260506164104 20 182 0.0 0.0 0.00 0.00 0.00 70 1010.8
20260506163603 20 182 0.0 0.0 0.00 0.00 0.00 71 1010.8
20260506163104 20 182 0.0 0.0 0.00 0.00 0.00 72 1010.8
20260506162604 20 182 0.0 0.0 0.00 0.00 0.00 71 1011.2
20260506162104 20 182 0.0 0.0 0.00 0.00 0.00 69 1011.2
20260506161604 20 182 0.0 0.0 0.00 0.00 0.00 72 1011.2
20260506160604 20 182 0.0 0.0 0.00 0.00 0.00 70 1011.5
20260506160104 20 182 0.0 0.0 0.00 0.00 0.00 69 1011.2
20260506155604 20 182 0.0 0.0 0.00 0.00 0.00 68 1011.2
20260506154604 20 182 0.0 0.0 0.00 0.00 0.00 68 1011.5
20260506154104 20 182 0.0 0.0 0.00 0.00 0.00 69 1011.5
20260506153604 20 182 0.0 0.0 0.00 0.00 0.00 69 1011.5
20260506153104 20 182 0.0 0.0 0.00 0.00 0.00 69 1011.5
20260506152104 21 182 0.0 0.0 0.00 0.00 0.00 67 1011.9
20260506151604 20 182 0.0 0.0 0.00 0.00 0.00 69 1011.9
20260506151104 20 182 0.0 0.0 0.00 0.00 0.00 70 1011.9
20260506150604 20 182 0.0 0.0 0.00 0.00 0.00 71 1011.9
20260506150104 20 182 0.0 0.0 0.00 0.00 0.00 69 1011.9
20260506145604 20 182 0.0 0.0 0.00 0.00 0.00 69 1011.9
20260506145104 20 182 0.0 0.0 0.00 0.00 0.00 70 1012.2
20260506144604 20 182 0.0 0.0 0.00 0.00 0.00 69 1011.9
20260506143604 20 182 0.0 0.0 0.00 0.00 0.00 74 1012.2
20260506143104 19 182 0.0 0.0 0.00 0.00 0.00 72 1012.2
20260506142604 18 182 0.0 0.0 0.00 0.00 0.00 75 1012.2
20260506142105 18 182 0.0 0.0 0.00 0.00 0.00 75 1012.2
20260506141604 18 182 0.0 0.0 0.00 0.00 0.00 75 1012.2
20260506141105 18 182 0.0 0.0 0.00 0.00 0.00 75 1011.9
20260506140604 18 182 0.0 0.0 0.00 0.00 0.00 75 1012.2
20260506140103 19 182 0.0 0.0 0.00 0.00 0.00 74 1012.2
20260506135604 19 182 0.0 0.0 0.00 0.00 0.00 75 1011.9
20260506135104 19 182 0.0 0.0 0.00 0.00 0.00 75 1011.9
20260506134104 19 182 0.0 0.0 0.00 0.00 0.00 79 1011.9
20260506133604 19 182 0.0 0.0 0.00 0.00 0.00 77 1012.2
20260506133104 18 182 0.0 0.0 0.00 0.00 0.00 77 1011.9
20260506132604 18 182 0.0 0.0 0.00 0.00 0.00 77 1012.1
20260506132104 18 182 0.0 0.0 0.00 0.00 0.00 78 1012.2
20260506131604 18 182 0.0 0.0 0.00 0.00 0.00 79 1012.2
20260506131104 17 182 0.0 0.0 0.00 0.00 0.00 81 1012.2
20260506130604 17 182 0.0 0.0 0.00 0.00 0.00 81 1012.4
20260506130103 17 182 0.0 0.0 0.00 0.00 0.00 80 1012.5
20260506125604 17 182 0.0 0.0 0.00 0.00 0.00 80 1012.5
20260506124604 17 182 0.0 0.0 0.00 0.00 0.00 81 1012.5
20260506124103 17 182 0.0 0.0 0.00 0.00 0.00 82 1012.5
20260506123604 16 182 0.0 0.0 0.00 0.00 0.00 84 1012.5
20260506123104 16 182 0.0 0.0 0.00 0.00 0.00 83 1012.5
20260506122604 16 182 0.0 0.0 0.00 0.00 0.00 84 1012.5
20260506122104 16 182 0.0 0.0 0.00 0.00 0.00 84 1012.5
20260506121604 16 182 0.0 0.0 0.00 0.00 0.00 85 1012.5
20260506121104 16 182 0.0 0.0 0.00 0.00 0.00 87 1012.5
20260506120604 15 182 0.0 0.0 0.00 0.00 0.00 88 1012.5
20260506120104 15 182 0.0 0.0 0.00 0.00 0.00 89 1012.5
20260506115604 15 182 0.0 0.0 0.00 0.00 0.00 89 1012.5
20260506115103 15 182 0.0 0.0 0.00 0.00 0.00 89 1012.5
20260506114104 15 182 0.0 0.0 0.00 0.00 0.00 90 1012.2
20260506113604 14 182 0.0 0.0 0.00 0.00 0.00 91 1012.5
20260506113104 14 182 0.0 0.0 0.00 0.00 0.00 92 1012.5
20260506112604 13 182 0.0 0.0 0.00 0.00 0.00 94 1012.9
20260506112104 13 182 0.0 0.0 0.00 0.00 0.00 94 1012.9
20260506111604 13 182 0.0 0.0 0.00 0.00 0.00 94 1012.9
20260506111103 13 182 0.0 0.0 0.00 0.00 0.00 94 1013.2